Hlavní strana
METAR-TAF:

METAR-TAF

Letiště :

Shelbyville Municipal Airport

Shelbyville, Indiana, Spojené státy americké

zeměpisná šířka: 39-35-08N, zeměpisná délka: 085-48-00W, výška: 245 m

Aktuální stav počasí

Zpráva byla vytvořena před 36 minutami, v 01:53 UTC
Jihojihovýchodní vítr 4 kt
Teplota 3°C
Vlhkost vzduchu 81%
Tlak 1030 hPa
Viditelnost: 16.1 km
Jasno

METAR: KGEZ 190153Z AUTO 15004KT 10SM CLR 03/00 A3041 RMK AO2 SLP302 T00330000

Čas: 22:29 (02:29 UTC)


TAF: chybějící

Stav a předpovědi počasí z více než 4 000 letišť (zprávy METAR a TAF).

Červené a žluté tečky na mapě představují dostupné meteorologické stanice.

Když kurzor umístíte na tečku, zobrazí se název stanice.

Pak kliknutím zobrazíte stav a předpověď počasí.

Chcete-li změnit mapu, kliknutím na zelené tlačítko se znaménkem +mapu přiblížíte, kliknutím na zelené tlačítko se znaménkem – mapu oddálíte a kliknutím na zelené šipky přejdete na sousední mapy.


METAR-TAF: